Temperature
25 25 24 24 25 25 25 25 25 26 24 24 25 25 27 28 28 28 29 29 29 29 29 28 28 27 26 26 25 25 24 23 22 21 20 20 20 19 19 19 19 19 19 18
25 24 25 25 25 25 25 24 24 24 24 23 23 24 26 27 28 28 28 28 28 28 28 27 26 26 25 25 24 24 23 22 22 21 20 20 19 19 19 19 18 18 18 18
24 25 25 25 24 24 24 23 22 22 22 23 22 23 25 26 27 27 27 28 28 28 27 26 25 25 24 24 23 23 22 22 21 20 20 19 19 18 18 18 18 18 18 18
25 26 25 25 24 24 23 23 22 22 21 21 21 21 23 25 26 26 27 27 27 27 27 25 25 24 23 23 22 22 21 21 20 20 19 19 18 18 18 18 18 18 18 18
26 26 25 25 25 24 23 23 22 21 21 20 21 20 22 25 25 26 26 27 27 27 26 25 24 24 23 22 22 21 21 20 20 19 19 18 18 18 18 18 18 18 17 17
27 27 27 26 26 25 24 23 22 21 21 20 22 21 22 24 25 26 27 27 27 26 26 25 24 23 22 22 21 21 21 20 20 19 19 18 18 18 17 17 17 17 17 17
26 27 28 27 25 25 24 22 21 20 19 21 23 22 23 25 26 26 27 27 26 26 25 24 23 23 22 22 21 21 20 20 20 19 19 19 18 18 17 17 17 17 17 17
24 24 26 26 25 24 24 23 21 20 20 21 21 22 24 26 26 27 27 26 26 25 25 24 23 22 22 21 21 21 21 20 19 19 19 19 19 18 17 17 17 17 17 16
22 22 25 25 25 24 23 23 24 22 22 21 22 23 24 24 25 26 26 26 25 25 24 24 23 23 22 21 21 21 21 20 20 19 19 19 19 18 18 17 17 17 16 16
22 21 22 24 24 24 23 23 23 21 19 20 22 22 20 20 22 24 24 24 24 24 24 23 23 23 22 22 21 21 21 20 20 19 19 19 19 18 17 17 17 17 16 16
21 20 21 22 22 22 22 21 21 20 20 19 19 19 19 18 19 20 21 22 22 22 22 22 23 23 22 22 22 21 21 20 20 19 19 19 19 18 17 17 17 16 16 16
20 19 18 20 22 20 20 18 18 17 18 18 18 18 18 17 18 19 21 21 21 22 22 22 22 22 23 23 22 22 21 20 20 20 19 19 19 18 17 17 17 16 16 16
19 18 17 17 19 17 16 16 17 17 18 17 17 17 17 17 18 19 20 21 22 22 23 23 23 23 23 23 23 22 21 21 20 20 19 19 19 18 18 17 17 16 16 16
19 18 17 15 16 15 15 15 16 17 16 16 16 16 16 17 18 19 20 21 22 22 23 23 23 23 23 23 23 22 22 21 20 19 19 19 19 18 18 17 17 16 16 16
19 17 18 18 18 17 16 16 17 17 17 16 16 16 16 17 18 19 20 20 21 22 22 22 23 23 23 22 22 22 22 21 21 20 19 19 18 18 18 17 17 16 16 16
19 17 17 17 18 17 16 15 16 17 17 16 16 15 17 18 18 19 19 20 20 21 21 22 22 22 22 22 21 21 21 21 20 20 19 19 18 18 17 17 16 16 16 16
18 17 16 16 17 17 13 12 13 14 14 15 15 15 17 17 18 18 18 18 19 20 20 20 21 21 21 20 20 20 20 20 20 19 19 18 18 17 17 16 16 16 16 16
18 17 16 15 15 13 10 11 12 13 13 14 14 15 16 16 17 17 17 17 17 18 18 18 19 19 19 19 19 19 19 18 18 18 18 17 17 16 16 16 16 15 15 15
18 17 15 14 13 11 11 11 12 12 13 12 13 14 14 15 17 17 16 16 17 17 17 17 18 18 18 18 18 18 18 17 17 17 16 16 16 15 15 15 15 15 15 15
18 17 15 14 12 11 10 12 13 14 13 11 12 13 13 14 14 15 16 16 17 16 17 17 17 17 17 17 17 17 16 15 15 14 14 14 14 14 14 14 14 14 14 14
16 16 15 14 12 11 12 13 13 12 10 10 11 12 12 13 13 14 16 16 16 16 16 16 16 16 16 16 16 15 14 14 13 13 13 13 13 13 13 13 13 13 13 14
15 14 14 14 12 12 13 13 12 11 11 11 11 11 12 12 13 14 16 16 17 16 16 16 16 15 15 15 15 14 13 13 13 12 12 12 12 12 12 12 12 12 13 13
15 14 14 14 13 14 13 13 12 11 11 10 10 11 11 12 13 14 15 17 17 17 16 16 16 15 15 14 14 13 13 13 13 13 12 12 12 12 12 12 12 12 12 12
16 15 15 14 14 14 13 13 12 11 11 10 11 11 11 12 13 14 15 17 17 17 16 16 16 16 15 15 14 13 13 13 13 13 13 12 12 12 12 12 11 11 11 12
15 15 14 14 14 14 13 12 12 11 11 11 11 11 12 12 13 14 15 16 17 17 17 16 16 16 16 15 14 14 13 13 13 13 13 12 12 12 11 11 11 11 11 11
16 15 14 13 13 13 13 12 12 11 11 11 11 11 12 13 13 14 15 16 17 17 17 16 16 16 16 15 15 14 14 13 13 13 12 12 12 11 11 11 11 11 11 11
Wind_Speed
5 7 7 8 9 9 13 15 16 11 7 7 9 13 14 12 8 7 8 9 9 6 5 6 9 8 6 5 4 6 8 9 8 7 6 5 4 3 3 4 5 5 4 5
6 8 6 5 7 10 13 15 15 10 8 7 10 15 16 13 11 9 10 10 8 3 1 7 7 7 5 6 4 3 5 7 8 7 6 5 5 3 3 3 4 5 4 3
9 5 2 6 9 10 10 7 7 9 9 6 8 13 15 16 15 14 12 9 6 4 4 8 6 8 7 7 5 4 4 5 7 7 5 4 4 3 3 3 3 4 5 5
8 6 5 8 9 9 9 4 4 6 6 5 4 8 11 13 12 12 10 8 7 6 6 9 9 9 8 8 6 5 5 5 6 7 6 6 6 6 6 5 5 5 5 5
10 8 8 10 10 8 6 3 4 6 6 8 8 8 9 10 9 8 7 7 8 8 8 11 10 10 10 9 7 6 7 6 5 5 6 5 5 5 5 6 7 8 7 6
16 13 11 10 8 6 4 6 7 8 6 9 11 10 8 6 5 4 4 4 4 7 9 12 11 10 10 9 7 7 7 7 5 5 6 7 7 6 5 5 5 5 4 5
16 14 10 7 7 6 8 8 5 5 6 6 4 6 7 4 3 2 1 4 7 8 10 12 12 11 10 9 8 7 8 7 6 6 7 8 7 6 6 5 5 5 4 5
15 13 6 2 6 8 10 11 8 6 6 5 2 6 5 3 2 2 2 6 8 10 10 12 12 11 10 10 9 8 9 8 6 4 4 4 8 4 4 5 5 6 5 6
11 13 16 15 11 10 11 13 12 11 13 13 8 8 4 2 3 1 2 7 7 8 9 10 11 10 11 10 9 9 9 9 8 6 3 0 4 6 4 4 4 4 5 5
13 19 17 17 17 12 13 13 8 6 6 8 8 2 6 9 12 8 5 3 4 5 6 6 8 9 10 10 9 9 9 9 8 7 6 4 1 3 2 1 3 4 3 4
16 14 16 16 15 14 11 9 8 6 5 4 4 1 6 12 14 15 11 9 7 5 3 1 1 5 8 10 10 8 8 8 8 8 7 7 5 4 4 3 3 3 3 4
11 10 14 17 13 12 7 6 6 4 6 3 2 1 8 11 13 15 12 9 7 4 1 2 2 6 6 8 9 10 9 9 8 7 8 9 8 7 5 5 5 4 4 5
10 8 12 12 8 12 9 11 10 6 3 1 1 1 10 13 15 15 14 11 8 6 5 1 3 3 4 5 6 8 9 10 9 7 6 7 7 7 6 5 5 5 5 6
7 10 10 11 11 8 9 12 12 7 3 3 2 5 11 14 16 16 14 12 10 8 7 6 2 1 3 2 3 5 7 8 9 9 7 6 7 7 6 5 5 5 6 6
10 11 13 13 10 7 10 11 10 8 4 1 2 7 12 12 12 13 14 13 11 8 6 5 4 1 1 2 1 1 2 4 8 9 7 7 6 6 6 5 5 6 5 4
10 11 15 14 10 8 7 14 10 7 8 8 8 8 14 14 13 14 16 15 12 9 8 7 6 5 3 4 4 3 2 1 4 6 6 6 4 5 5 4 4 5 5 3
10 13 13 11 12 6 7 15 15 14 15 13 13 12 17 18 16 16 18 17 15 14 13 13 12 10 10 8 5 4 2 3 3 3 4 5 3 4 4 3 4 3 4 5
11 11 6 8 10 5 5 10 12 11 17 20 18 19 21 20 11 14 19 18 16 15 14 13 12 12 11 10 8 7 8 7 8 7 6 5 3 2 2 3 4 4 4 4
11 8 6 6 6 3 6 12 14 7 8 19 20 21 23 23 13 14 21 17 12 11 10 9 10 10 11 10 10 9 10 11 11 10 9 7 6 4 2 2 4 4 4 4
11 8 5 6 5 5 7 17 19 5 3 17 19 20 21 21 14 13 19 14 10 8 8 8 9 10 9 9 10 11 11 10 9 8 8 7 6 5 4 4 3 4 3 4
12 9 9 7 4 2 6 15 11 7 7 15 16 17 17 15 12 16 17 11 7 6 7 7 7 7 8 8 10 10 9 8 7 6 6 6 6 5 4 4 3 3 2 3
9 8 8 7 6 4 10 10 8 6 9 12 14 15 16 16 17 17 15 10 4 4 5 6 5 6 6 7 7 7 6 5 4 4 4 5 5 5 5 4 4 4 3 3
6 6 5 5 3 4 6 5 6 7 10 11 13 15 16 17 16 17 15 11 4 3 3 2 2 3 5 6 6 6 4 4 3 3 4 4 5 5 6 5 5 4 3 3
4 5 4 3 4 8 5 9 10 10 10 12 13 15 15 15 17 16 14 11 5 1 2 1 2 1 4 4 4 4 4 5 3 2 3 4 6 6 6 6 6 5 5 5
3 3 4 4 6 7 7 12 12 12 12 13 13 14 14 15 16 14 13 12 6 1 2 1 3 2 2 3 4 4 4 6 5 4 5 6 5 5 5 6 6 5 6 5
1 2 3 4 7 7 10 11 12 13 13 14 14 15 15 14 14 13 12 11 8 3 2 3 3 3 0 3 3 5 2 4 5 5 5 4 3 3 2 3 5 10 9 11
Wind_Direction
227 251 260 273 283 277 282 288 287 293 347 327 285 277 276 272 257 245 252 256 254 256 254 156 132 130 144 149 163 158 155 163 150 147 147 153 168 166 162 163 176 187 193 189
266 261 291 305 293 283 280 284 291 308 348 339 310 293 285 278 268 252 250 258 262 288 5 99 115 138 145 121 118 124 145 148 145 147 156 163 168 190 189 170 175 167 190 206
278 282 294 289 289 288 286 295 308 311 316 299 304 288 278 275 268 261 252 249 251 244 182 141 139 121 110 108 103 89 84 114 127 135 138 149 155 188 203 191 194 187 189 194
272 262 252 267 272 274 277 294 301 306 310 298 292 288 282 283 271 262 250 237 226 209 172 141 135 126 124 113 111 123 110 105 118 132 152 167 176 188 200 196 198 204 197 188
281 273 259 265 269 267 270 244 255 264 267 273 258 262 272 262 257 256 242 216 211 187 158 141 140 137 130 123 126 120 118 117 124 145 157 175 191 194 197 194 198 201 204 196
269 263 253 262 271 256 221 236 244 246 248 258 247 234 270 266 251 259 224 195 181 158 152 144 135 126 119 119 119 118 123 123 134 153 167 188 195 188 186 190 199 199 195 199
306 288 257 225 249 244 232 250 267 253 233 257 287 245 252 250 256 274 247 159 154 150 149 139 131 127 131 137 139 134 128 133 156 186 198 189 178 182 192 189 195 192 194 203
311 310 336 316 272 278 253 248 250 271 274 284 280 260 276 270 228 206 167 138 146 149 140 138 142 145 147 149 151 150 148 154 163 202 237 178 155 170 182 180 181 188 193 203
321 309 318 317 304 287 282 264 266 275 274 274 245 225 206 305 318 347 125 129 139 142 141 146 149 155 156 158 163 165 158 158 163 190 208 5 133 158 168 186 178 168 182 191
318 308 304 307 301 283 270 277 274 254 268 266 273 294 15 10 352 356 21 90 120 136 145 153 158 166 165 161 166 170 163 162 171 180 172 141 140 140 134 153 150 164 179 158
318 304 303 303 297 302 307 293 285 273 256 266 290 31 11 356 354 353 11 19 29 32 23 21 199 178 180 168 166 169 166 168 177 181 169 153 187 175 167 176 175 168 167 162
339 318 304 301 308 354 348 322 314 293 272 284 302 37 29 357 350 341 355 9 11 358 289 171 213 228 203 176 173 173 176 181 181 186 176 168 175 162 177 191 180 180 174 173
335 314 312 316 332 13 358 329 324 320 299 286 284 30 12 356 347 341 343 345 342 328 323 303 187 207 205 186 184 181 184 187 179 182 190 163 163 169 183 201 173 180 189 185
308 296 302 304 309 315 308 307 321 330 332 339 0 15 4 357 341 335 334 336 333 334 333 325 316 208 183 184 208 207 195 179 167 174 181 174 174 174 174 193 179 195 209 197
334 313 318 318 312 295 294 309 307 303 304 304 39 42 10 350 338 342 347 345 341 343 336 324 308 306 147 163 258 241 158 163 159 162 167 175 185 168 173 199 190 197 218 214
336 323 323 320 320 315 343 2 355 11 28 49 46 26 357 353 359 8 5 360 357 354 1 3 12 26 40 72 69 53 49 87 142 152 158 158 171 161 176 203 216 199 195 217
335 330 326 320 322 317 42 19 28 39 37 44 42 16 359 0 6 21 12 8 10 19 26 27 30 33 42 49 56 69 55 47 59 87 117 129 147 154 163 199 238 226 194 206
342 340 334 323 341 41 24 355 2 24 42 31 21 12 4 354 357 40 20 12 15 22 27 26 29 34 35 38 42 55 58 48 43 41 42 55 50 56 154 214 242 237 222 211
3 348 341 345 355 49 359 349 336 324 38 21 9 3 1 355 1 19 8 4 12 18 19 19 26 37 35 31 31 44 53 48 40 29 23 25 19 8 341 277 267 258 246 233
8 12 12 1 7 23 338 330 326 303 35 4 356 355 357 360 4 345 341 349 7 16 15 22 29 35 34 31 38 47 48 46 38 25 19 18 13 359 345 331 306 289 274 258
360 7 17 15 37 57 328 339 354 41 337 330 339 344 348 349 334 321 329 342 1 24 19 28 38 34 30 36 51 52 45 42 35 25 19 13 7 350 3 358 342 326 306 293
9 4 10 5 21 14 1 3 18 342 319 323 329 332 333 329 326 328 330 332 354 40 36 30 39 41 34 35 58 65 39 23 36 29 19 13 9 10 26 20 4 349 337 312
33 16 355 358 10 359 354 9 2 341 327 325 323 322 324 325 328 328 329 329 345 69 62 34 35 78 69 51 47 58 39 357 19 41 29 26 27 37 33 20 13 3 355 340
18 4 343 341 11 357 15 7 356 344 329 320 318 317 319 322 323 325 328 328 333 106 105 284 283 130 106 96 82 63 10 333 350 55 53 57 46 42 44 35 22 18 17 9
320 325 321 319 6 350 349 352 342 335 330 326 323 319 318 319 320 324 325 325 326 321 143 250 297 314 123 123 110 93 23 336 342 37 61 74 69 58 57 62 40 22 41 36
226 327 326 335 358 335 327 336 338 333 331 328 323 320 320 319 318 322 324 322 320 309 170 190 256 287 331 97 101 110 80 334 1 44 44 53 79 74 73 104 94 54 54 52
Height
1479 1482 1484 1482 1479 1480 1480 1480 1479 1474 1473 1473 1473 1471 1464 1461 1461 1462 1463 1464 1465 1466 1468 1469 1472 1477 1481 1485 1488 1491 1493 1495 1497 1500 1502 1505 1508 1511 1513 1514 1516 1518 1520 1523
1479 1482 1478 1477 1477 1478 1479 1481 1480 1476 1476 1477 1477 1473 1464 1459 1458 1458 1459 1461 1462 1464 1466 1468 1471 1475 1479 1482 1486 1489 1491 1493 1495 1497 1499 1502 1505 1508 1510 1511 1513 1515 1517 1520
1481 1478 1476 1479 1480 1481 1481 1485 1486 1486 1479 1476 1479 1475 1464 1456 1455 1454 1455 1457 1459 1461 1464 1468 1471 1474 1477 1480 1483 1486 1489 1490 1492 1494 1497 1499 1502 1505 1507 1508 1510 1511 1513 1516
1476 1472 1475 1478 1478 1479 1485 1481 1483 1484 1487 1488 1485 1490 1469 1457 1453 1450 1451 1453 1456 1458 1462 1465 1469 1473 1477 1479 1482 1484 1486 1488 1490 1491 1493 1496 1498 1500 1502 1504 1506 1508 1510 1512
1474 1470 1473 1475 1474 1474 1478 1479 1481 1483 1487 1490 1484 1489 1471 1454 1454 1449 1447 1448 1451 1455 1459 1463 1468 1472 1476 1478 1480 1483 1484 1486 1487 1489 1491 1493 1496 1498 1500 1502 1503 1505 1507 1509
1468 1464 1465 1467 1467 1469 1473 1478 1480 1481 1485 1494 1478 1483 1474 1455 1450 1447 1444 1446 1448 1452 1457 1462 1467 1471 1474 1477 1479 1481 1483 1484 1486 1487 1489 1491 1493 1495 1497 1499 1500 1502 1503 1505
1469 1461 1458 1461 1468 1470 1472 1481 1493 1495 1497 1488 1468 1472 1465 1448 1444 1443 1443 1444 1448 1452 1456 1461 1466 1470 1473 1475 1478 1480 1481 1483 1484 1486 1487 1489 1491 1493 1495 1496 1497 1499 1500 1501
1480 1475 1461 1462 1467 1472 1471 1475 1493 1501 1496 1485 1476 1473 1456 1444 1443 1442 1443 1444 1448 1451 1455 1460 1464 1468 1471 1474 1477 1478 1480 1482 1483 1484 1487 1488 1489 1490 1492 1494 1495 1496 1497 1498
1488 1483 1468 1466 1466 1468 1473 1470 1466 1476 1478 1482 1472 1461 1449 1448 1446 1445 1444 1445 1449 1452 1455 1459 1463 1466 1469 1472 1475 1477 1479 1480 1481 1483 1485 1487 1489 1489 1491 1492 1493 1494 1495 1496
1487 1489 1477 1469 1467 1464 1466 1466 1469 1479 1490 1488 1472 1467 1476 1465 1460 1450 1448 1449 1450 1452 1455 1459 1462 1464 1466 1469 1473 1476 1477 1479 1480 1482 1483 1485 1486 1488 1489 1490 1491 1492 1493 1494
1489 1491 1484 1476 1473 1472 1470 1472 1473 1474 1476 1488 1491 1487 1477 1477 1471 1463 1458 1455 1454 1455 1457 1459 1460 1464 1465 1468 1470 1473 1475 1477 1478 1480 1482 1483 1484 1486 1487 1488 1489 1490 1491 1492
1492 1493 1492 1483 1474 1474 1474 1480 1482 1492 1487 1483 1490 1493 1479 1480 1477 1471 1464 1461 1459 1459 1459 1459 1460 1462 1464 1466 1468 1470 1472 1474 1476 1479 1480 1481 1483 1484 1485 1486 1487 1488 1489 1490
1499 1500 1503 1495 1487 1487 1490 1488 1483 1483 1483 1486 1494 1494 1483 1480 1477 1472 1467 1464 1460 1459 1458 1458 1459 1461 1462 1464 1466 1468 1470 1471 1473 1475 1478 1480 1481 1482 1483 1484 1485 1486 1487 1488
1499 1499 1505 1510 1503 1499 1498 1492 1486 1486 1490 1490 1492 1494 1489 1484 1478 1472 1468 1463 1461 1459 1458 1458 1458 1459 1460 1462 1464 1466 1467 1468 1470 1471 1475 1477 1479 1480 1481 1482 1483 1484 1485 1487
1500 1500 1496 1493 1491 1492 1493 1490 1487 1486 1485 1491 1492 1494 1492 1487 1481 1475 1470 1465 1461 1459 1458 1458 1458 1458 1459 1460 1462 1463 1464 1466 1468 1470 1472 1474 1477 1478 1479 1480 1481 1482 1484 1485
1500 1501 1497 1494 1490 1490 1494 1495 1489 1487 1487 1489 1491 1495 1492 1487 1481 1476 1472 1468 1464 1461 1460 1459 1458 1458 1459 1460 1461 1462 1463 1465 1467 1468 1470 1473 1475 1476 1476 1478 1479 1480 1481 1481
1502 1501 1503 1501 1492 1491 1506 1511 1506 1503 1499 1495 1500 1501 1492 1487 1483 1480 1477 1472 1468 1465 1463 1462 1461 1461 1461 1461 1462 1463 1464 1465 1467 1468 1469 1470 1472 1474 1473 1475 1476 1477 1478 1478
1503 1503 1504 1504 1501 1514 1527 1519 1515 1510 1507 1505 1504 1501 1496 1491 1486 1484 1481 1478 1474 1471 1469 1467 1466 1465 1465 1465 1465 1465 1465 1466 1466 1467 1468 1468 1469 1470 1470 1471 1472 1473 1474 1474
1504 1505 1507 1510 1514 1522 1524 1518 1515 1513 1511 1512 1509 1504 1499 1493 1485 1483 1484 1482 1480 1477 1475 1473 1471 1470 1469 1469 1468 1468 1467 1467 1466 1466 1466 1466 1467 1467 1468 1468 1469 1470 1470 1471
1506 1506 1511 1515 1521 1529 1531 1518 1511 1507 1512 1515 1513 1509 1505 1500 1496 1493 1489 1486 1483 1481 1479 1477 1475 1474 1473 1472 1471 1469 1469 1468 1467 1467 1466 1465 1465 1464 1465 1465 1465 1466 1467 1468
1514 1512 1515 1519 1524 1532 1528 1520 1513 1520 1526 1519 1516 1513 1510 1507 1506 1499 1492 1488 1485 1484 1482 1480 1479 1477 1476 1475 1473 1471 1471 1470 1469 1468 1467 1465 1464 1463 1462 1462 1462 1462 1463 1464
1521 1522 1522 1522 1526 1533 1525 1522 1524 1527 1523 1520 1516 1514 1511 1507 1502 1497 1493 1489 1486 1485 1484 1482 1481 1480 1479 1477 1476 1474 1473 1472 1471 1469 1468 1466 1465 1463 1462 1461 1460 1460 1460 1461
1523 1527 1526 1528 1530 1527 1525 1525 1525 1524 1521 1518 1515 1512 1509 1505 1501 1497 1492 1489 1487 1485 1485 1484 1483 1482 1481 1479 1478 1476 1475 1473 1472 1470 1469 1467 1465 1464 1462 1461 1460 1459 1459 1460
1523 1525 1525 1525 1525 1525 1525 1525 1524 1522 1520 1517 1513 1510 1507 1504 1500 1496 1492 1489 1486 1485 1484 1484 1484 1483 1481 1480 1479 1477 1475 1474 1473 1471 1470 1468 1466 1464 1463 1461 1460 1459 1459 1459
1526 1525 1526 1524 1525 1525 1524 1524 1522 1520 1517 1514 1510 1508 1505 1502 1498 1495 1492 1488 1486 1484 1484 1483 1483 1483 1482 1481 1479 1477 1475 1474 1473 1472 1470 1468 1467 1465 1464 1462 1461 1461 1460 1460
1522 1524 1525 1526 1526 1526 1525 1523 1520 1517 1514 1511 1508 1504 1502 1500 1497 1494 1491 1488 1485 1484 1483 1482 1482 1482 1482 1481 1480 1477 1476 1475 1474 1472 1471 1470 1468 1467 1466 1464 1463 1463 1462 1461